Weather History for KBUU - June, 2013

Change the Weather History Date:

Tuesday, June 11, 2013

  Actual Average (KENW) Record (KENW)
Temperature  
Mean Temperature 70 °F -  
Max Temperature 84 °F 73 °F 93 °F (1973)
Min Temperature 56 °F 53 °F 36 °F (1972)
Cooling Degree Days 5    
Growing Degree Days 20 (Base 50)    
Moisture  
Dew Point 59 °F    
Average Humidity 73    
Maximum Humidity 100    
Minimum Humidity 42    
Precipitation  
Precipitation 0.00 in - - ()
Sea Level Pressure  
Sea Level Pressure 29.86 in    
Wind  
Wind Speed 3 mph (SW)    
Max Wind Speed 12 mph    
Max Gust Speed 17 mph    
Visibility 7 miles    
Events      
Averages and records for this station are not official NWS values.
T = Trace of Precipitation, MM = Missing Value Source: NWS Daily Summary

Daily Weather History Graph

Daily Weather History Graph

Search for Another Location

Airport or City:

Trip Planner

Search our weather history database for the weather conditions in past years. The results will help you decide how hot, cold, wet, or windy it might be!

Date:

Astronomy

Jun. 11, 2013 Rise Set
Actual Time 5:14 AM CDT 8:31 PM CDT
Civil Twilight 4:39 AM CDT 9:06 PM CDT
Nautical Twilight 3:54 AM CDT 9:51 PM CDT
Astronomical Twilight 2:59 AM CDT 10:46 PM CDT
Moon 8:00 AM CDT (6/11) 10:30 PM CDT (6/11)
Length of Visible Light 16h 26m
Length of Day
15h 16m
Waxing Crescent, 8% of the Moon is Illuminated
Jun 11
Waxing Crescent
Jun 16
First Quarter
Jun 23
Full
Jun 29
Last Quarter
Jul 8
New

Hourly Weather History & Observations

Time (CDT) Temp. Heat Index Dew Point Humidity Pressure Visibility Wind Dir Wind Speed Gust Speed Precip Events Conditions
12:15 AM 59.9 °F - 58.6 °F 96% 29.88 in 5.0 mi Calm Calm - N/A   Clear
12:35 AM 59.0 °F - 58.3 °F 97% 29.88 in 4.0 mi SSW 3.5 mph - N/A   Clear
12:55 AM 58.6 °F - 58.1 °F 98% 29.88 in 3.0 mi Calm Calm - N/A   Clear
1:15 AM 58.3 °F - 58.1 °F 99% 29.88 in 3.0 mi Calm Calm - N/A   Clear
1:35 AM 58.6 °F - 58.5 °F 99% 29.88 in 2.0 mi Calm Calm - N/A   Clear
1:55 AM 57.7 °F - 57.6 °F 99% 29.88 in 1.5 mi Calm Calm - N/A   Mist
2:15 AM 56.8 °F - 56.7 °F 99% 29.88 in 1.2 mi Calm Calm - N/A   Mist
2:35 AM 57.4 °F - 57.4 °F 100% 29.89 in 1.5 mi Calm Calm - N/A   Mist
2:55 AM 56.8 °F - 56.8 °F 100% 29.88 in 1.0 mi Calm Calm - N/A   Mist
3:35 AM 56.5 °F - 56.5 °F 100% 29.89 in 0.8 mi Calm Calm - N/A   Mist
3:55 AM 56.5 °F - 56.5 °F 100% 29.89 in 0.8 mi SSW 3.5 mph - N/A   Mist
4:15 AM 57.2 °F - 57.2 °F 100% 29.89 in 1.8 mi SSW 3.5 mph - N/A   Mist
4:35 AM 56.7 °F - 56.7 °F 100% 29.89 in 2.0 mi Calm Calm - N/A   Clear
4:55 AM 57.2 °F - 57.2 °F 100% 29.90 in 3.0 mi SSW 4.6 mph - N/A   Clear
5:15 AM 56.1 °F - 56.1 °F 100% 29.89 in 1.5 mi Calm Calm - N/A   Mist
5:35 AM 57.0 °F - 57.0 °F 100% 29.89 in 2.0 mi SSW 4.6 mph - N/A   Clear
5:55 AM 57.4 °F - 57.4 °F 100% 29.90 in 3.0 mi SSW 3.5 mph - N/A   Clear
1:15 PM 78.8 °F - 59.9 °F 52% 29.89 in 10.0 mi SSW 6.9 mph - N/A   Mostly Cloudy
1:35 PM 80.8 °F 81.5 °F 60.4 °F 50% 29.89 in 10.0 mi South 3.5 mph - N/A   Scattered Clouds
1:55 PM 80.8 °F 81.5 °F 60.8 °F 50% 29.88 in 10.0 mi SSW 5.8 mph - N/A   Scattered Clouds
2:15 PM 81.3 °F 81.7 °F 59.2 °F 47% 29.87 in 10.0 mi SSW 8.1 mph - N/A   Clear
2:35 PM 81.0 °F 81.5 °F 59.7 °F 48% 29.88 in 10.0 mi SW 8.1 mph - N/A   Clear
2:55 PM 82.9 °F 83.3 °F 60.8 °F 47% 29.87 in 10.0 mi WSW 8.1 mph - N/A   Clear
3:15 PM 81.7 °F 81.8 °F 58.6 °F 45% 29.87 in 10.0 mi WSW 4.6 mph - N/A   Clear
3:35 PM 82.6 °F 82.3 °F 58.1 °F 43% 29.86 in 10.0 mi WSW 6.9 mph - N/A   Clear
3:55 PM 82.8 °F 82.7 °F 58.6 °F 44% 29.84 in 10.0 mi SW 8.1 mph - N/A   Clear
4:15 PM 80.6 °F 81.4 °F 60.4 °F 50% 29.81 in 10.0 mi SSW 8.1 mph - N/A   Clear
4:35 PM 83.7 °F 83.4 °F 59.2 °F 43% 29.83 in 10.0 mi WSW 9.2 mph - N/A   Clear
4:55 PM 83.5 °F 83.1 °F 58.3 °F 42% 29.82 in 10.0 mi SW 10.4 mph - N/A   Clear
5:15 PM 84.4 °F 84.2 °F 59.5 °F 43% 29.82 in 10.0 mi SW 9.2 mph - N/A   Clear
5:35 PM 83.8 °F 83.6 °F 59.2 °F 43% 29.82 in 10.0 mi WSW 10.4 mph - N/A   Clear
5:55 PM 81.5 °F 81.7 °F 59.0 °F 46% 29.83 in 10.0 mi WSW 6.9 mph - N/A   Clear
6:15 PM 80.8 °F 81.3 °F 59.4 °F 48% 29.83 in 10.0 mi SW 11.5 mph 17.3 mph N/A   Clear
6:35 PM 79.9 °F - 59.7 °F 50% 29.83 in 10.0 mi SSW 10.4 mph - N/A   Clear
6:55 PM 78.6 °F - 59.4 °F 51% 29.83 in 10.0 mi SW 6.9 mph - N/A   Clear
7:15 PM 77.9 °F - 59.9 °F 54% 29.85 in 10.0 mi WSW 4.6 mph - N/A   Clear
7:35 PM 77.4 °F - 60.8 °F 57% 29.84 in 10.0 mi SSW 5.8 mph - N/A   Clear
9:55 PM 68.2 °F - 59.9 °F 75% 29.83 in 10.0 mi Calm Calm - N/A   Unknown
10:15 PM 67.3 °F - 60.6 °F 79% 29.84 in 10.0 mi NNW 4.6 mph - N/A   Clear
10:35 PM 67.1 °F - 61.2 °F 81% 29.83 in 10.0 mi SE 3.5 mph - N/A   Clear
10:55 PM 67.5 °F - 61.5 °F 81% 29.85 in 10.0 mi North 4.6 mph - N/A   Clear
11:15 PM 68.2 °F - 61.2 °F 78% 29.86 in 10.0 mi North 3.5 mph - N/A   Clear
11:35 PM 68.2 °F - 61.7 °F 80% 29.86 in 10.0 mi Calm Calm - N/A   Clear
11:55 PM 67.3 °F - 61.5 °F 82% 29.85 in 10.0 mi Calm Calm - N/A   Clear